Regional Weather Roundup
Issued by NWS

Home | Current Version | Previous Version | Graphics & Text | Print | Product List | Glossary On
Versions: 1 2 3 4 5 6 7 8 9 10 11 12 13 14 15 16 17 18 19 20 21 22 23 24 25 26 27 28 29 30 31 32 33 34 35 36 37 38 39 40 41 42 43 44 45 46 47 48 49 50
000
ASUS43 KBIS 221110
RWRND

NORTH DAKOTA REGIONAL WEATHER ROUNDUP
NATIONAL WEATHER SERVICE BISMARCK ND
600 AM CDT FRI SEP 22 2017

NOTE: "FAIR" INDICATES FEW OR NO CLOUDS BELOW 12,000 FEET WITH NO
SIGNIFICANT WEATHER AND/OR OBSTRUCTIONS TO VISIBILITY.


NDZ001>003-009>011-017-221200-
NORTHWEST NORTH DAKOTA

CITY           SKY/WX    TMP DP  RH WIND       PRES   REMARKS
WILLISTON      LGT RAIN  46  38  73 N14       29.94S
MINOT          CLOUDY    48  40  73 N10       29.92R
MINOT AFB      CLOUDY    47  40  75 N13       29.92R
$$

NDZ018>021-031>035-040>046-221200-
SOUTHWEST NORTH DAKOTA

CITY           SKY/WX    TMP DP  RH WIND       PRES   REMARKS
BISMARCK       MOCLDY    54  45  71 N17G25    29.81R
DICKINSON      CLOUDY    50  38  63 NE18G24   29.86R
GARRISON         N/A     50  39  66 NE17G26   29.86F
HETTINGER ARPT CLOUDY    51  38  60 N24       29.82R
$$

NDZ004>008-012>016-024-026-027-054-221200-
NORTHEAST NORTH DAKOTA

CITY           SKY/WX    TMP DP  RH WIND       PRES   REMARKS
GRAND FORKS    PTCLDY    56  53  90 N14       29.79R
GRND FRKS AFB  CLEAR     55  51  85 N13       29.81R
DEVILS LAKE    CLEAR     51  48  89 N15G23    29.85F
$$

NDZ022-023-025-028>030-036>039-047>053-221200-
SOUTHEAST NORTH DAKOTA

CITY           SKY/WX    TMP DP  RH WIND       PRES   REMARKS
FARGO          MOCLDY    65  65 100 N3        29.74R
JAMESTOWN      CLOUDY    56  50  80 N15G22    29.77S
$$





USA.gov is the U.S. government's official web portal to all federal, state and local government web resources and services.